QPF
0.00 0.00 0.00 0.00 0.00 0.00 0.00 0.00 0.00 0.00 0.01 0.04 0.07 0.13 0.24 0.30 0.33 0.36 0.38 0.41 0.42 0.45 0.44 0.36 0.31 0.28 0.25 0.21 0.17 0.14 0.12 0.10 0.09 0.06 0.04 0.02 0.01 0.00 0.00 0.00 0.00 0.00 0.00
0.00 0.00 0.00 0.00 0.00 0.00 0.00 0.00 0.00 0.02 0.05 0.13 0.24 0.38 0.50 0.59 0.62 0.59 0.58 0.59 0.61 0.63 0.59 0.51 0.47 0.46 0.36 0.22 0.14 0.10 0.09 0.09 0.07 0.04 0.02 0.00 0.00 0.00 0.00 0.00 0.00 0.00 0.00
0.00 0.00 0.00 0.00 0.00 0.00 0.00 0.00 0.00 0.04 0.10 0.22 0.41 0.60 0.78 0.96 0.99 0.90 0.79 0.74 0.72 0.71 0.74 0.69 0.57 0.42 0.26 0.16 0.12 0.10 0.08 0.05 0.02 0.01 0.00 0.00 0.00 0.00 0.00 0.00 0.00 0.00 0.00
0.00 0.00 0.00 0.00 0.00 0.00 0.00 0.00 0.01 0.04 0.12 0.29 0.50 0.69 0.91 1.14 1.25 1.08 0.90 0.74 0.65 0.65 0.68 0.65 0.47 0.29 0.17 0.10 0.08 0.05 0.02 0.01 0.00 0.00 0.00 0.00 0.00 0.00 0.00 0.00 0.00 0.00 0.00
0.00 0.00 0.00 0.00 0.00 0.00 0.00 0.00 0.02 0.06 0.18 0.35 0.53 0.68 0.82 0.95 0.97 0.82 0.66 0.57 0.50 0.44 0.39 0.30 0.18 0.10 0.06 0.04 0.02 0.01 0.00 0.00 0.00 0.00 0.00 0.00 0.00 0.00 0.00 0.00 0.00 0.00 0.00
0.00 0.00 0.00 0.00 0.00 0.00 0.01 0.01 0.03 0.10 0.19 0.31 0.45 0.53 0.59 0.61 0.55 0.47 0.41 0.39 0.38 0.29 0.17 0.09 0.04 0.02 0.01 0.00 0.00 0.00 0.00 0.00 0.00 0.00 0.00 0.00 0.00 0.00 0.00 0.00 0.00 0.00 0.00
0.01 0.01 0.01 0.01 0.01 0.01 0.01 0.02 0.05 0.13 0.19 0.25 0.31 0.34 0.37 0.34 0.30 0.30 0.30 0.28 0.22 0.12 0.05 0.01 0.01 0.00 0.00 0.00 0.00 0.00 0.00 0.00 0.00 0.00 0.00 0.00 0.00 0.00 0.00 0.00 0.00 0.00 0.00
0.01 0.02 0.02 0.02 0.02 0.02 0.03 0.03 0.06 0.11 0.14 0.16 0.18 0.19 0.17 0.17 0.18 0.20 0.18 0.13 0.07 0.03 0.01 0.00 0.00 0.00 0.00 0.00 0.00 0.00 0.00 0.00 0.00 0.00 0.00 0.00 0.00 0.00 0.00 0.00 0.00 0.00 0.00
0.02 0.02 0.02 0.02 0.01 0.02 0.02 0.03 0.06 0.08 0.09 0.10 0.11 0.10 0.09 0.11 0.11 0.09 0.06 0.04 0.02 0.01 0.00 0.00 0.00 0.00 0.00 0.00 0.00 0.00 0.00 0.00 0.00 0.00 0.00 0.00 0.00 0.00 0.00 0.00 0.00 0.00 0.00
0.02 0.02 0.02 0.02 0.02 0.02 0.02 0.03 0.04 0.04 0.05 0.05 0.05 0.06 0.06 0.06 0.05 0.04 0.03 0.02 0.01 0.01 0.00 0.00 0.00 0.00 0.00 0.00 0.00 0.00 0.00 0.00 0.00 0.00 0.00 0.00 0.00 0.00 0.00 0.00 0.00 0.00 0.00
0.02 0.02 0.02 0.02 0.02 0.02 0.02 0.02 0.02 0.03 0.04 0.04 0.05 0.05 0.05 0.04 0.03 0.03 0.02 0.01 0.01 0.00 0.00 0.00 0.00 0.00 0.00 0.00 0.00 0.00 0.00 0.00 0.00 0.00 0.00 0.00 0.00 0.00 0.00 0.00 0.00 0.00 0.00
0.02 0.02 0.02 0.02 0.02 0.02 0.02 0.02 0.02 0.02 0.03 0.03 0.03 0.02 0.02 0.02 0.02 0.01 0.00 0.00 0.00 0.00 0.00 0.00 0.00 0.00 0.00 0.00 0.00 0.00 0.00 0.00 0.00 0.00 0.00 0.00 0.00 0.00 0.00 0.00 0.00 0.00 0.01
0.03 0.02 0.02 0.01 0.01 0.01 0.01 0.01 0.01 0.01 0.01 0.01 0.01 0.01 0.01 0.01 0.01 0.00 0.00 0.00 0.00 0.00 0.00 0.00 0.00 0.00 0.00 0.00 0.00 0.00 0.00 0.00 0.00 0.00 0.00 0.00 0.00 0.00 0.00 0.00 0.01 0.01 0.01
0.02 0.02 0.01 0.01 0.01 0.01 0.00 0.00 0.01 0.01 0.00 0.00 0.00 0.00 0.00 0.00 0.00 0.00 0.00 0.00 0.00 0.00 0.00 0.00 0.00 0.00 0.00 0.00 0.00 0.00 0.00 0.00 0.00 0.00 0.00 0.00 0.00 0.00 0.01 0.01 0.01 0.02 0.03
0.02 0.01 0.01 0.01 0.01 0.00 0.00 0.00 0.00 0.00 0.00 0.00 0.00 0.00 0.00 0.00 0.01 0.01 0.00 0.00 0.00 0.00 0.00 0.00 0.00 0.00 0.00 0.00 0.00 0.00 0.00 0.00 0.00 0.00 0.00 0.00 0.00 0.00 0.01 0.01 0.02 0.04 0.05
0.02 0.02 0.01 0.01 0.01 0.01 0.00 0.00 0.00 0.00 0.00 0.00 0.00 0.01 0.01 0.01 0.01 0.01 0.01 0.00 0.00 0.00 0.00 0.00 0.00 0.00 0.00 0.00 0.00 0.00 0.00 0.00 0.00 0.00 0.00 0.00 0.00 0.00 0.00 0.00 0.01 0.04 0.05
0.04 0.03 0.03 0.02 0.02 0.01 0.00 0.00 0.00 0.00 0.00 0.01 0.01 0.01 0.01 0.02 0.02 0.01 0.01 0.00 0.00 0.00 0.00 0.00 0.00 0.00 0.00 0.00 0.00 0.00 0.00 0.00 0.00 0.00 0.00 0.00 0.00 0.01 0.01 0.01 0.01 0.01 0.01
0.05 0.04 0.03 0.02 0.01 0.01 0.00 0.01 0.01 0.01 0.01 0.02 0.02 0.03 0.02 0.02 0.01 0.01 0.00 0.00 0.00 0.00 0.00 0.00 0.00 0.00 0.00 0.00 0.00 0.00 0.00 0.00 0.00 0.00 0.00 0.01 0.01 0.01 0.01 0.01 0.01 0.01 0.01
0.04 0.04 0.03 0.02 0.02 0.01 0.01 0.01 0.02 0.02 0.03 0.04 0.04 0.03 0.02 0.01 0.01 0.00 0.00 0.00 0.00 0.00 0.00 0.00 0.00 0.00 0.00 0.00 0.00 0.00 0.00 0.00 0.00 0.00 0.00 0.01 0.01 0.01 0.00 0.01 0.01 0.01 0.01
0.02 0.01 0.01 0.01 0.01 0.01 0.01 0.02 0.03 0.04 0.04 0.04 0.03 0.02 0.01 0.00 0.00 0.00 0.00 0.00 0.00 0.00 0.00 0.00 0.00 0.00 0.00 0.00 0.00 0.00 0.00 0.00 0.00 0.00 0.00 0.00 0.00 0.00 0.00 0.00 0.01 0.02 0.02
0.00 0.00 0.00 0.01 0.01 0.01 0.01 0.02 0.03 0.03 0.03 0.02 0.01 0.01 0.00 0.00 0.00 0.00 0.00 0.00 0.00 0.00 0.00 0.00 0.00 0.00 0.00 0.00 0.00 0.00 0.00 0.00 0.00 0.00 0.01 0.01 0.00 0.00 0.00 0.00 0.02 0.02 0.01
0.00 0.00 0.01 0.01 0.01 0.02 0.02 0.03 0.03 0.02 0.01 0.01 0.00 0.00 0.00 0.00 0.00 0.00 0.00 0.00 0.00 0.00 0.00 0.00 0.00 0.00 0.00 0.00 0.00 0.00 0.00 0.00 0.01 0.01 0.01 0.01 0.00 0.00 0.00 0.01 0.01 0.01 0.02
0.01 0.01 0.01 0.01 0.02 0.02 0.02 0.02 0.02 0.01 0.01 0.01 0.01 0.00 0.00 0.00 0.00 0.00 0.00 0.00 0.01 0.00 0.00 0.00 0.00 0.00 0.00 0.01 0.00 0.00 0.00 0.00 0.01 0.01 0.01 0.00 0.00 0.00 0.02 0.01 0.00 0.02 0.05
0.01 0.01 0.01 0.01 0.01 0.01 0.01 0.02 0.02 0.01 0.01 0.01 0.01 0.01 0.01 0.00 0.00 0.00 0.00 0.01 0.01 0.01 0.01 0.01 0.01 0.01 0.01 0.01 0.00 0.00 0.00 0.00 0.01 0.01 0.01 0.00 0.00 0.01 0.01 0.02 0.03 0.05 0.05
0.01 0.01 0.01 0.01 0.01 0.01 0.01 0.01 0.02 0.02 0.02 0.02 0.01 0.01 0.00 0.00 0.01 0.01 0.00 0.00 0.01 0.00 0.00 0.01 0.01 0.01 0.01 0.00 0.00 0.00 0.00 0.00 0.00 0.00 0.01 0.02 0.01 0.01 0.01 0.02 0.04 0.06 0.06
0.01 0.01 0.01 0.01 0.01 0.00 0.01 0.01 0.01 0.02 0.02 0.02 0.01 0.01 0.00 0.00 0.00 0.01 0.01 0.01 0.00 0.00 0.00 0.00 0.00 0.00 0.00 0.00 0.00 0.00 0.00 0.00 0.00 0.01 0.01 0.01 0.01 0.01 0.01 0.02 0.03 0.05 0.05
MSLP
1006.83 1006.79 1006.80 1006.90 1007.15 1007.59 1008.27 1009.15 1010.22 1011.40 1012.60 1013.75 1014.79 1015.67 1016.39 1016.97 1017.44 1017.84 1018.20 1018.53 1018.84 1019.11 1019.35 1019.55 1019.70 1019.83 1019.95 1020.10 1020.30 1020.54 1020.81 1021.10 1021.37 1021.58 1021.70 1021.73 1021.68 1021.56 1021.41 1021.26 1021.14 1021.08 1021.07
1006.95 1006.81 1006.70 1006.69 1006.83 1007.19 1007.81 1008.69 1009.78 1011.01 1012.28 1013.51 1014.61 1015.55 1016.32 1016.93 1017.41 1017.81 1018.18 1018.52 1018.85 1019.16 1019.43 1019.66 1019.83 1019.97 1020.10 1020.24 1020.41 1020.63 1020.89 1021.17 1021.44 1021.65 1021.78 1021.81 1021.75 1021.61 1021.42 1021.23 1021.06 1020.94 1020.89
1007.34 1007.13 1006.93 1006.81 1006.84 1007.11 1007.66 1008.48 1009.54 1010.76 1012.03 1013.27 1014.39 1015.35 1016.13 1016.74 1017.23 1017.64 1018.02 1018.39 1018.76 1019.12 1019.44 1019.71 1019.93 1020.09 1020.23 1020.36 1020.51 1020.71 1020.94 1021.20 1021.45 1021.65 1021.78 1021.81 1021.73 1021.57 1021.34 1021.11 1020.89 1020.73 1020.64
1008.02 1007.77 1007.50 1007.30 1007.24 1007.41 1007.85 1008.58 1009.56 1010.71 1011.93 1013.12 1014.21 1015.13 1015.89 1016.49 1016.98 1017.41 1017.82 1018.23 1018.65 1019.07 1019.46 1019.80 1020.06 1020.27 1020.42 1020.55 1020.69 1020.85 1021.05 1021.27 1021.49 1021.67 1021.77 1021.78 1021.68 1021.49 1021.24 1020.96 1020.70 1020.49 1020.35
1008.94 1008.69 1008.39 1008.13 1007.99 1008.06 1008.39 1009.00 1009.85 1010.88 1011.99 1013.09 1014.10 1014.97 1015.69 1016.27 1016.76 1017.20 1017.65 1018.11 1018.60 1019.09 1019.56 1019.97 1020.30 1020.54 1020.72 1020.85 1020.97 1021.10 1021.26 1021.44 1021.61 1021.75 1021.82 1021.79 1021.66 1021.44 1021.14 1020.82 1020.51 1020.25 1020.07
1010.04 1009.81 1009.52 1009.23 1009.02 1009.00 1009.21 1009.68 1010.39 1011.27 1012.24 1013.22 1014.13 1014.93 1015.59 1016.15 1016.63 1017.09 1017.58 1018.10 1018.65 1019.22 1019.76 1020.24 1020.63 1020.92 1021.13 1021.26 1021.37 1021.46 1021.57 1021.69 1021.81 1021.89 1021.92 1021.85 1021.68 1021.42 1021.09 1020.72 1020.36 1020.06 1019.83
1011.21 1011.04 1010.77 1010.46 1010.22 1010.11 1010.21 1010.54 1011.10 1011.83 1012.66 1013.51 1014.31 1015.02 1015.63 1016.16 1016.65 1017.13 1017.65 1018.21 1018.83 1019.45 1020.06 1020.60 1021.03 1021.36 1021.58 1021.72 1021.80 1021.86 1021.92 1021.98 1022.04 1022.07 1022.04 1021.93 1021.73 1021.44 1021.07 1020.67 1020.27 1019.92 1019.64
1012.34 1012.24 1012.01 1011.72 1011.45 1011.29 1011.29 1011.51 1011.93 1012.52 1013.21 1013.94 1014.64 1015.28 1015.85 1016.35 1016.83 1017.33 1017.87 1018.47 1019.12 1019.78 1020.42 1020.99 1021.45 1021.79 1022.02 1022.14 1022.20 1022.22 1022.23 1022.24 1022.24 1022.22 1022.15 1022.01 1021.78 1021.47 1021.09 1020.66 1020.24 1019.86 1019.53
1013.35 1013.32 1013.15 1012.89 1012.62 1012.42 1012.37 1012.50 1012.82 1013.30 1013.89 1014.51 1015.14 1015.72 1016.24 1016.73 1017.21 1017.71 1018.25 1018.85 1019.50 1020.17 1020.81 1021.37 1021.83 1022.17 1022.38 1022.48 1022.51 1022.49 1022.45 1022.42 1022.38 1022.32 1022.22 1022.07 1021.83 1021.52 1021.14 1020.72 1020.29 1019.89 1019.54
1014.17 1014.22 1014.11 1013.90 1013.65 1013.46 1013.39 1013.48 1013.74 1014.14 1014.66 1015.22 1015.79 1016.33 1016.83 1017.30 1017.76 1018.24 1018.77 1019.35 1019.97 1020.60 1021.20 1021.73 1022.16 1022.46 1022.64 1022.71 1022.71 1022.65 1022.58 1022.51 1022.44 1022.36 1022.25 1022.10 1021.88 1021.59 1021.24 1020.84 1020.43 1020.02 1019.65
1014.82 1014.93 1014.89 1014.74 1014.54 1014.39 1014.33 1014.42 1014.66 1015.05 1015.53 1016.06 1016.60 1017.12 1017.60 1018.05 1018.48 1018.93 1019.42 1019.94 1020.50 1021.07 1021.60 1022.07 1022.45 1022.70 1022.84 1022.87 1022.83 1022.74 1022.64 1022.54 1022.45 1022.37 1022.27 1022.13 1021.95 1021.70 1021.39 1021.04 1020.65 1020.26 1019.88
1015.31 1015.49 1015.52 1015.43 1015.31 1015.21 1015.21 1015.34 1015.61 1016.00 1016.48 1017.01 1017.54 1018.05 1018.51 1018.93 1019.33 1019.74 1020.16 1020.62 1021.10 1021.58 1022.04 1022.43 1022.74 1022.94 1023.03 1023.03 1022.95 1022.84 1022.71 1022.60 1022.49 1022.41 1022.32 1022.21 1022.06 1021.86 1021.60 1021.28 1020.93 1020.55 1020.16
1015.73 1015.96 1016.05 1016.04 1016.00 1015.99 1016.06 1016.25 1016.57 1017.00 1017.50 1018.04 1018.57 1019.06 1019.50 1019.90 1020.25 1020.60 1020.96 1021.34 1021.74 1022.14 1022.52 1022.84 1023.08 1023.23 1023.28 1023.24 1023.14 1023.00 1022.85 1022.72 1022.61 1022.51 1022.43 1022.34 1022.22 1022.05 1021.82 1021.54 1021.20 1020.83 1020.43
1016.15 1016.42 1016.56 1016.63 1016.67 1016.75 1016.91 1017.17 1017.55 1018.02 1018.55 1019.10 1019.63 1020.10 1020.52 1020.87 1021.18 1021.47 1021.76 1022.07 1022.39 1022.72 1023.03 1023.30 1023.49 1023.60 1023.62 1023.55 1023.43 1023.27 1023.10 1022.94 1022.81 1022.70 1022.60 1022.51 1022.39 1022.24 1022.02 1021.74 1021.41 1021.02 1020.60
1016.62 1016.92 1017.11 1017.24 1017.36 1017.52 1017.76 1018.09 1018.53 1019.03 1019.58 1020.13 1020.64 1021.09 1021.46 1021.77 1022.03 1022.26 1022.50 1022.75 1023.01 1023.29 1023.55 1023.78 1023.94 1024.03 1024.03 1023.94 1023.80 1023.62 1023.42 1023.23 1023.06 1022.92 1022.80 1022.68 1022.54 1022.36 1022.13 1021.83 1021.47 1021.05 1020.59
1017.19 1017.50 1017.73 1017.91 1018.09 1018.31 1018.61 1018.99 1019.46 1019.98 1020.53 1021.05 1021.53 1021.93 1022.26 1022.52 1022.73 1022.91 1023.10 1023.31 1023.54 1023.78 1024.02 1024.23 1024.38 1024.46 1024.45 1024.36 1024.19 1023.99 1023.76 1023.53 1023.31 1023.12 1022.95 1022.78 1022.59 1022.36 1022.08 1021.74 1021.33 1020.86 1020.35
1017.87 1018.18 1018.42 1018.63 1018.85 1019.11 1019.44 1019.85 1020.32 1020.83 1021.34 1021.83 1022.25 1022.60 1022.86 1023.07 1023.22 1023.37 1023.52 1023.70 1023.92 1024.15 1024.38 1024.59 1024.74 1024.81 1024.80 1024.70 1024.52 1024.29 1024.03 1023.75 1023.49 1023.24 1023.00 1022.76 1022.50 1022.21 1021.87 1021.46 1020.98 1020.46 1019.88
1018.62 1018.92 1019.16 1019.38 1019.61 1019.89 1020.22 1020.62 1021.07 1021.54 1022.00 1022.42 1022.77 1023.05 1023.25 1023.40 1023.51 1023.62 1023.75 1023.92 1024.12 1024.35 1024.59 1024.80 1024.96 1025.03 1025.02 1024.91 1024.72 1024.46 1024.16 1023.84 1023.53 1023.21 1022.91 1022.60 1022.27 1021.90 1021.49 1021.01 1020.47 1019.88 1019.26
1019.39 1019.68 1019.91 1020.11 1020.33 1020.60 1020.91 1021.28 1021.68 1022.09 1022.48 1022.82 1023.10 1023.30 1023.44 1023.54 1023.61 1023.69 1023.81 1023.97 1024.17 1024.41 1024.65 1024.86 1025.02 1025.10 1025.08 1024.96 1024.75 1024.47 1024.14 1023.78 1023.42 1023.05 1022.69 1022.31 1021.92 1021.49 1021.01 1020.47 1019.87 1019.24 1018.58
1020.13 1020.39 1020.59 1020.78 1020.98 1021.21 1021.49 1021.81 1022.15 1022.49 1022.81 1023.07 1023.28 1023.41 1023.50 1023.55 1023.59 1023.65 1023.76 1023.92 1024.12 1024.36 1024.60 1024.81 1024.97 1025.04 1025.01 1024.88 1024.65 1024.35 1024.00 1023.61 1023.21 1022.80 1022.39 1021.97 1021.52 1021.04 1020.51 1019.93 1019.29 1018.63 1017.94
1020.78 1021.00 1021.17 1021.33 1021.49 1021.69 1021.93 1022.20 1022.48 1022.76 1023.00 1023.20 1023.34 1023.43 1023.47 1023.49 1023.51 1023.57 1023.67 1023.83 1024.04 1024.27 1024.51 1024.72 1024.86 1024.92 1024.88 1024.73 1024.49 1024.18 1023.80 1023.39 1022.97 1022.53 1022.09 1021.63 1021.15 1020.64 1020.07 1019.46 1018.80 1018.12 1017.44
1021.28 1021.47 1021.61 1021.73 1021.87 1022.03 1022.23 1022.45 1022.68 1022.91 1023.10 1023.25 1023.34 1023.39 1023.40 1023.41 1023.43 1023.49 1023.60 1023.77 1023.97 1024.21 1024.44 1024.64 1024.78 1024.82 1024.77 1024.61 1024.36 1024.03 1023.64 1023.22 1022.77 1022.32 1021.85 1021.37 1020.86 1020.32 1019.73 1019.10 1018.44 1017.76 1017.09
1021.62 1021.78 1021.89 1021.99 1022.09 1022.23 1022.40 1022.58 1022.78 1022.96 1023.11 1023.23 1023.29 1023.32 1023.33 1023.34 1023.37 1023.45 1023.57 1023.75 1023.97 1024.21 1024.44 1024.64 1024.76 1024.80 1024.73 1024.57 1024.31 1023.97 1023.57 1023.14 1022.68 1022.20 1021.71 1021.20 1020.66 1020.09 1019.49 1018.85 1018.18 1017.51 1016.86
1021.82 1021.94 1022.02 1022.10 1022.19 1022.31 1022.45 1022.62 1022.79 1022.94 1023.07 1023.16 1023.21 1023.24 1023.25 1023.28 1023.33 1023.43 1023.58 1023.78 1024.01 1024.27 1024.51 1024.70 1024.83 1024.87 1024.81 1024.64 1024.38 1024.03 1023.63 1023.17 1022.69 1022.18 1021.66 1021.11 1020.54 1019.93 1019.31 1018.65 1017.99 1017.33 1016.70
1021.89 1021.98 1022.05 1022.11 1022.20 1022.30 1022.44 1022.58 1022.73 1022.86 1022.97 1023.05 1023.10 1023.12 1023.15 1023.19 1023.27 1023.40 1023.57 1023.80 1024.07 1024.34 1024.60 1024.82 1024.96 1025.01 1024.95 1024.79 1024.54 1024.19 1023.77 1023.30 1022.78 1022.24 1021.66 1021.06 1020.44 1019.80 1019.13 1018.46 1017.79 1017.14 1016.53
1021.90 1021.97 1022.03 1022.09 1022.17 1022.27 1022.39 1022.52 1022.65 1022.76 1022.84 1022.90 1022.94 1022.96 1023.00 1023.06 1023.16 1023.31 1023.52 1023.78 1024.08 1024.38 1024.67 1024.91 1025.08 1025.15 1025.12 1024.97 1024.73 1024.38 1023.95 1023.46 1022.90 1022.31 1021.68 1021.02 1020.34 1019.64 1018.93 1018.23 1017.55 1016.90 1016.31
Thickness
5820 5821 5819 5816 5809 5802 5794 5787 5779 5771 5762 5753 5744 5734 5725 5716 5708 5702 5697 5691 5685 5678 5673 5668 5663 5660 5658 5656 5654 5652 5648 5646 5644 5643 5642 5641 5640 5640 5637 5637 5636 5633 5629
5810 5812 5815 5813 5808 5800 5793 5786 5778 5770 5760 5752 5742 5732 5720 5708 5700 5692 5685 5680 5675 5669 5665 5662 5658 5653 5650 5648 5645 5642 5641 5639 5636 5636 5635 5634 5632 5629 5629 5626 5624 5621 5619
5797 5802 5806 5807 5805 5799 5793 5787 5778 5768 5758 5748 5737 5724 5713 5702 5691 5686 5678 5672 5667 5661 5657 5655 5651 5647 5644 5640 5637 5636 5634 5632 5627 5625 5625 5625 5630 5630 5623 5617 5613 5608 5606
5789 5795 5799 5800 5800 5798 5793 5784 5774 5764 5753 5743 5732 5722 5710 5699 5690 5682 5675 5666 5659 5655 5651 5647 5644 5639 5635 5632 5630 5628 5627 5624 5621 5617 5613 5612 5610 5609 5612 5608 5604 5598 5592
5773 5779 5785 5789 5791 5791 5786 5779 5767 5756 5746 5736 5728 5718 5709 5700 5690 5680 5671 5660 5652 5648 5643 5639 5635 5631 5628 5624 5621 5619 5618 5616 5614 5611 5607 5602 5598 5595 5592 5592 5589 5586 5583
5756 5761 5766 5770 5772 5774 5771 5763 5753 5743 5735 5727 5720 5713 5705 5694 5685 5674 5665 5655 5646 5641 5636 5632 5627 5624 5620 5616 5612 5609 5606 5604 5599 5598 5596 5593 5590 5587 5583 5579 5576 5574 5572
5738 5742 5745 5747 5749 5750 5749 5745 5738 5729 5722 5716 5709 5703 5695 5687 5678 5669 5659 5648 5640 5633 5628 5624 5620 5616 5611 5606 5602 5598 5594 5590 5586 5583 5582 5579 5576 5572 5567 5563 5562 5560 5558
5720 5722 5725 5727 5729 5729 5729 5727 5722 5715 5709 5703 5697 5690 5684 5676 5667 5658 5649 5640 5634 5626 5619 5614 5610 5605 5600 5595 5590 5587 5582 5578 5575 5571 5566 5563 5562 5556 5551 5547 5544 5545 5545
5704 5706 5708 5710 5712 5712 5712 5711 5707 5701 5696 5690 5683 5676 5670 5663 5654 5645 5638 5630 5622 5615 5609 5604 5598 5592 5587 5582 5578 5575 5570 5565 5563 5559 5554 5548 5545 5539 5535 5530 5526 5523 5526
5690 5691 5693 5694 5695 5695 5695 5694 5691 5686 5680 5675 5669 5663 5656 5649 5642 5634 5625 5618 5611 5604 5598 5592 5586 5580 5575 5570 5566 5562 5556 5551 5547 5540 5535 5529 5527 5523 5518 5514 5510 5506 5504
5678 5678 5679 5680 5681 5681 5680 5678 5674 5670 5665 5660 5654 5648 5641 5634 5627 5620 5612 5604 5597 5591 5584 5578 5573 5567 5562 5557 5552 5549 5542 5537 5532 5525 5521 5515 5510 5506 5503 5500 5496 5491 5487
5666 5666 5666 5667 5667 5666 5664 5662 5658 5654 5649 5644 5638 5631 5625 5618 5612 5604 5596 5589 5583 5576 5570 5564 5558 5552 5547 5542 5537 5532 5527 5522 5516 5511 5506 5502 5498 5492 5488 5484 5480 5475 5467
5653 5653 5653 5652 5651 5650 5648 5645 5642 5638 5634 5628 5622 5615 5609 5602 5595 5587 5580 5573 5566 5559 5553 5547 5541 5536 5531 5526 5521 5517 5512 5506 5502 5497 5492 5488 5483 5478 5474 5467 5464 5459 5454
5641 5639 5637 5636 5635 5633 5631 5628 5624 5620 5616 5610 5604 5598 5591 5584 5577 5569 5562 5555 5549 5542 5535 5530 5525 5521 5516 5511 5506 5502 5497 5492 5488 5483 5478 5474 5469 5463 5458 5454 5450 5445 5440
5628 5624 5621 5619 5617 5615 5612 5609 5605 5600 5597 5592 5585 5578 5571 5564 5557 5550 5543 5537 5531 5525 5519 5515 5510 5506 5501 5494 5488 5485 5484 5479 5475 5471 5467 5462 5455 5448 5442 5439 5436 5432 5429
5613 5609 5605 5602 5599 5595 5592 5588 5584 5580 5577 5572 5565 5558 5551 5544 5537 5531 5525 5519 5514 5509 5505 5500 5496 5491 5485 5473 5468 5465 5467 5466 5463 5459 5455 5450 5446 5440 5432 5428 5423 5420 5420
5598 5593 5588 5584 5580 5577 5574 5570 5565 5561 5557 5551 5545 5538 5532 5525 5518 5513 5508 5503 5498 5494 5489 5484 5480 5475 5465 5457 5453 5451 5451 5453 5451 5447 5443 5439 5436 5429 5426 5422 5419 5419 5418
5581 5575 5570 5566 5563 5559 5555 5552 5547 5542 5537 5531 5525 5519 5514 5508 5503 5498 5493 5488 5484 5479 5474 5469 5464 5460 5452 5444 5440 5438 5440 5442 5440 5437 5434 5430 5426 5423 5417 5415 5417 5419 5420
5564 5559 5554 5551 5547 5543 5540 5535 5530 5525 5520 5513 5508 5503 5499 5494 5489 5485 5479 5474 5469 5464 5460 5454 5450 5446 5440 5432 5428 5425 5431 5432 5430 5428 5426 5422 5419 5415 5410 5411 5416 5419 5421
5548 5544 5541 5537 5533 5529 5525 5520 5515 5509 5504 5499 5494 5490 5485 5481 5476 5470 5465 5459 5454 5450 5447 5441 5437 5433 5429 5421 5418 5414 5422 5422 5421 5420 5419 5417 5413 5409 5408 5410 5414 5417 5420
5534 5532 5529 5524 5519 5514 5510 5505 5499 5494 5490 5486 5482 5477 5471 5466 5460 5455 5450 5445 5442 5437 5433 5430 5426 5422 5417 5414 5409 5406 5409 5411 5411 5412 5413 5413 5408 5408 5408 5409 5413 5415 5414
5522 5519 5515 5509 5504 5500 5496 5491 5487 5483 5478 5474 5469 5463 5457 5453 5447 5441 5437 5433 5430 5427 5423 5419 5416 5413 5409 5405 5402 5400 5399 5398 5403 5407 5408 5409 5407 5408 5410 5413 5414 5414 5416
5510 5506 5502 5497 5492 5488 5485 5482 5476 5472 5467 5462 5456 5450 5445 5440 5435 5431 5427 5424 5420 5418 5414 5410 5406 5403 5401 5399 5396 5395 5395 5396 5398 5403 5403 5405 5408 5411 5416 5417 5417 5418 5422
5498 5495 5492 5489 5485 5482 5477 5472 5467 5461 5456 5450 5445 5439 5435 5430 5425 5421 5418 5415 5411 5408 5405 5401 5397 5394 5393 5392 5390 5390 5393 5394 5398 5401 5405 5407 5411 5414 5417 5420 5423 5424 5423
5490 5488 5486 5482 5477 5472 5468 5462 5456 5451 5445 5439 5434 5430 5426 5422 5416 5412 5407 5404 5399 5394 5390 5390 5388 5386 5385 5380 5376 5378 5384 5387 5392 5395 5404 5409 5413 5416 5419 5423 5426 5427 5428
5485 5481 5478 5473 5468 5463 5458 5452 5446 5441 5435 5430 5426 5423 5418 5414 5410 5407 5402 5391 5387 5381 5377 5374 5372 5375 5371 5371 5373 5375 5379 5384 5389 5396 5403 5406 5409 5412 5417 5422 5427 5430 5432